When you browse on this site, cookies collect data to enhance your experience and personalize the content and advertising you see.
Visit our Privacy Policy to learn more. By continuing to use the site, you agree to this use of cookies and data.
  • In Österreich
  • Länderverzeichnis
  • Für 7 Tage
  • Wassertemperatur
  • Wetterkarte
  • News
  • Widgets
  • user-avatar
    Anmelden

    Stündliche Wetter Budamsha

    Heute, 19 November, Dienstag

    Zeit Temperatur Niederschläge Wind Luftdruck Luftfeuchtigkeit
    00:00 -2°C° 0.3 mm 3 m/S 741 mmHg 97%
    01:00 -2°C° 0.3 mm 3 m/S 741 mmHg 97%
    02:00 -2°C° 1 mm 3 m/S 741 mmHg 97%
    03:00 -2°C° 1 mm 3 m/S 741 mmHg 97%
    04:00 -3°C° 0 mm 4 m/S 741 mmHg 96%
    05:00 -5°C° 0.3 mm 5 m/S 742 mmHg 95%
    06:00 -6°C° 0.3 mm 6 m/S 742 mmHg 93%
    07:00 -8°C° 0.3 mm 7 m/S 742 mmHg 92%
    08:00 -11°C° 0.1 mm 7 m/S 743 mmHg 91%
    09:00 -13°C° 0.1 mm 7 m/S 744 mmHg 90%
    10:00 -16°C° 0 mm 8 m/S 745 mmHg 89%
    11:00 -16°C° 0 mm 8 m/S 745 mmHg 88%
    12:00 -17°C° 0 mm 7 m/S 745 mmHg 87%
    13:00 -18°C° 0 mm 7 m/S 746 mmHg 86%
    14:00 -19°C° 0 mm 7 m/S 746 mmHg 85%
    15:00 -20°C° 0 mm 7 m/S 747 mmHg 84%
    16:00 -21°C° 0 mm 7 m/S 748 mmHg 83%
    17:00 -23°C° 0 mm 7 m/S 748 mmHg 84%
    18:00 -22°C° 0 mm 6 m/S 748 mmHg 84%
    19:00 -23°C° 0 mm 6 m/S 749 mmHg 84%
    20:00 -24°C° 0 mm 6 m/S 749 mmHg 85%
    21:00 -24°C° 0 mm 6 m/S 749 mmHg 85%
    22:00 -25°C° 0 mm 5 m/S 750 mmHg 86%
    23:00 -25°C° 0 mm 5 m/S 750 mmHg 86%

    Morgen, 20 November, Mittwoch

    Zeit Temperatur Niederschläge Wind Luftdruck Luftfeuchtigkeit
    00:00 -26°C° 0 mm 5 m/S 750 mmHg 87%
    01:00 -26°C° 0 mm 5 m/S 750 mmHg 88%
    02:00 -26°C° 0 mm 5 m/S 751 mmHg 88%
    03:00 -26°C° 0 mm 5 m/S 751 mmHg 88%
    04:00 -26°C° 0 mm 5 m/S 752 mmHg 88%
    05:00 -27°C° 0 mm 5 m/S 752 mmHg 88%
    06:00 -28°C° 0 mm 6 m/S 752 mmHg 88%
    07:00 -28°C° 0 mm 6 m/S 752 mmHg 88%
    08:00 -28°C° 0 mm 6 m/S 752 mmHg 87%
    09:00 -27°C° 0 mm 6 m/S 753 mmHg 87%
    10:00 -27°C° 0 mm 6 m/S 753 mmHg 86%
    11:00 -27°C° 0 mm 6 m/S 753 mmHg 86%
    12:00 -26°C° 0 mm 5 m/S 753 mmHg 85%
    13:00 -25°C° 0 mm 5 m/S 753 mmHg 84%
    14:00 -25°C° 0 mm 5 m/S 754 mmHg 85%
    15:00 -25°C° 0 mm 5 m/S 754 mmHg 86%
    16:00 -25°C° 0 mm 5 m/S 755 mmHg 87%
    17:00 -25°C° 0 mm 5 m/S 755 mmHg 87%
    18:00 -25°C° 0 mm 5 m/S 755 mmHg 88%
    19:00 -25°C° 0 mm 5 m/S 755 mmHg 89%
    20:00 -24°C° 0 mm 4 m/S 756 mmHg 90%
    21:00 -24°C° 0 mm 4 m/S 756 mmHg 90%
    22:00 -23°C° 0 mm 3 m/S 756 mmHg 91%
    23:00 -23°C° 0 mm 3 m/S 756 mmHg 91%

    übermorgen, 21 November, Donnerstag

    Zeit Temperatur Niederschläge Wind Luftdruck Luftfeuchtigkeit
    00:00 -23°C° 0 mm 3 m/S 756 mmHg 92%
    01:00 -23°C° 0 mm 3 m/S 756 mmHg 93%
    02:00 -23°C° 0 mm 3 m/S 757 mmHg 92%
    03:00 -23°C° 0 mm 3 m/S 757 mmHg 92%
    04:00 -23°C° 0 mm 3 m/S 757 mmHg 92%
    05:00 -23°C° 0 mm 3 m/S 757 mmHg 92%
    06:00 -21°C° 0 mm 2 m/S 757 mmHg 92%
    07:00 -21°C° 0 mm 2 m/S 756 mmHg 91%
    08:00 -21°C° 0 mm 2 m/S 757 mmHg 88%
    09:00 -18°C° 0 mm 1 m/S 757 mmHg 85%
    10:00 -17°C° 0 mm 1 m/S 757 mmHg 82%
    11:00 -16°C° 0 mm 1 m/S 757 mmHg 80%
    12:00 -15°C° 0 mm 1 m/S 756 mmHg 78%
    13:00 -15°C° 0 mm 1 m/S 756 mmHg 75%
    14:00 -15°C° 0 mm 1 m/S 756 mmHg 78%
    15:00 -15°C° 0 mm 1 m/S 755 mmHg 80%
    16:00 -16°C° 0 mm 1 m/S 755 mmHg 83%
    17:00 -15°C° 0 mm 1 m/S 755 mmHg 82%
    18:00 -15°C° 0 mm 1 m/S 755 mmHg 82%
    19:00 -17°C° 0 mm 2 m/S 754 mmHg 82%
    20:00 -17°C° 0 mm 2 m/S 754 mmHg 84%
    21:00 -17°C° 0 mm 2 m/S 754 mmHg 85%
    22:00 -16°C° 0 mm 2 m/S 754 mmHg 87%
    23:00 -16°C° 0 mm 2 m/S 754 mmHg 86%

    22 November, Freitag

    Zeit Temperatur Niederschläge Wind Luftdruck Luftfeuchtigkeit
    00:00 -16°C° 0 mm 2 m/S 753 mmHg 85%
    01:00 -16°C° 0 mm 2 m/S 753 mmHg 84%
    02:00 -16°C° 0 mm 2 m/S 753 mmHg 83%
    03:00 -16°C° 0 mm 2 m/S 752 mmHg 81%
    04:00 -16°C° 0 mm 2 m/S 752 mmHg 80%
    05:00 -16°C° 0 mm 2 m/S 752 mmHg 79%
    06:00 -16°C° 0 mm 2 m/S 752 mmHg 78%
    07:00 -16°C° 0 mm 2 m/S 751 mmHg 77%
    08:00 -15°C° 0 mm 2 m/S 752 mmHg 76%
    09:00 -14°C° 0 mm 2 m/S 752 mmHg 76%
    10:00 -11°C° 0 mm 1 m/S 752 mmHg 75%
    11:00 -11°C° 0 mm 1 m/S 751 mmHg 74%
    12:00 -10°C° 0 mm 1 m/S 751 mmHg 73%
    13:00 -9°C° 0 mm 1 m/S 751 mmHg 71%
    14:00 -10°C° 0 mm 1 m/S 751 mmHg 73%
    15:00 -11°C° 0 mm 1 m/S 750 mmHg 75%
    16:00 -11°C° 0 mm 1 m/S 750 mmHg 77%
    17:00 -12°C° 0 mm 0 m/S 750 mmHg 76%
    18:00 -12°C° 0 mm 0 m/S 750 mmHg 76%
    19:00 -12°C° 0 mm 0 m/S 750 mmHg 75%
    20:00 -12°C° 0 mm 0 m/S 750 mmHg 74%
    21:00 -12°C° 0 mm 0 m/S 750 mmHg 73%
    22:00 -12°C° 0 mm 0 m/S 750 mmHg 73%
    23:00 -12°C° 0 mm 0 m/S 750 mmHg 73%

    23 November, Samstag

    Zeit Temperatur Niederschläge Wind Luftdruck Luftfeuchtigkeit
    00:00 -12°C° 0 mm 0 m/S 750 mmHg 73%
    01:00 -12°C° 0 mm 0 m/S 750 mmHg 73%
    02:00 -12°C° 0 mm 0 m/S 749 mmHg 73%
    03:00 -12°C° 0 mm 0 m/S 749 mmHg 74%
    04:00 -12°C° 0 mm 0 m/S 749 mmHg 75%
    05:00 -12°C° 0 mm 0 m/S 749 mmHg 74%
    06:00 -12°C° 0 mm 0 m/S 749 mmHg 74%
    07:00 -12°C° 0 mm 0 m/S 749 mmHg 74%
    08:00 -11°C° 0 mm 1 m/S 748 mmHg 73%
    09:00 -11°C° 0 mm 1 m/S 748 mmHg 73%
    10:00 -10°C° 0 mm 1 m/S 748 mmHg 72%
    11:00 -9°C° 0 mm 1 m/S 748 mmHg 73%
    12:00 -10°C° 0 mm 2 m/S 748 mmHg 75%
    13:00 -9°C° 0 mm 2 m/S 747 mmHg 76%
    14:00 -10°C° 0 mm 2 m/S 747 mmHg 79%
    15:00 -10°C° 0 mm 2 m/S 746 mmHg 82%
    16:00 -12°C° 0 mm 2 m/S 746 mmHg 85%
    17:00 -10°C° 0 mm 2 m/S 746 mmHg 87%
    18:00 -10°C° 0 mm 2 m/S 746 mmHg 89%
    19:00 -10°C° 0 mm 2 m/S 746 mmHg 91%
    20:00 -10°C° 0 mm 2 m/S 746 mmHg 91%
    21:00 -10°C° 0 mm 2 m/S 745 mmHg 92%
    22:00 -10°C° 0 mm 2 m/S 745 mmHg 93%
    23:00 -12°C° 0 mm 2 m/S 745 mmHg 92%

    24 November, Sonntag

    Zeit Temperatur Niederschläge Wind Luftdruck Luftfeuchtigkeit
    00:00 -12°C° 0 mm 2 m/S 745 mmHg 91%
    01:00 -12°C° 0 mm 2 m/S 745 mmHg 90%
    02:00 -12°C° 0 mm 2 m/S 745 mmHg 90%
    03:00 -12°C° 0 mm 2 m/S 745 mmHg 90%
    04:00 -12°C° 0 mm 2 m/S 745 mmHg 90%
    05:00 -12°C° 0 mm 2 m/S 745 mmHg 89%
    06:00 -10°C° 0 mm 1 m/S 745 mmHg 89%
    07:00 -10°C° 0 mm 1 m/S 745 mmHg 89%
    08:00 -9°C° 0 mm 1 m/S 745 mmHg 88%
    09:00 -9°C° 0 mm 1 m/S 745 mmHg 88%
    10:00 -8°C° 0 mm 1 m/S 746 mmHg 87%
    11:00 -7°C° 0 mm 1 m/S 745 mmHg 87%
    12:00 -7°C° 0 mm 2 m/S 745 mmHg 87%
    13:00 -7°C° 0 mm 2 m/S 745 mmHg 86%
    14:00 -7°C° 0 mm 2 m/S 745 mmHg 88%
    15:00 -9°C° 0 mm 3 m/S 745 mmHg 89%
    16:00 -9°C° 0 mm 3 m/S 745 mmHg 90%
    17:00 -9°C° 0 mm 3 m/S 745 mmHg 90%
    18:00 -11°C° 0 mm 4 m/S 745 mmHg 91%
    19:00 -11°C° 0 mm 4 m/S 745 mmHg 91%
    20:00 -11°C° 0 mm 4 m/S 744 mmHg 91%
    21:00 -11°C° 0 mm 4 m/S 744 mmHg 92%
    22:00 -12°C° 0 mm 4 m/S 744 mmHg 92%
    23:00 -12°C° 0 mm 4 m/S 744 mmHg 92%
    Mehr zeigen